Content
SEND FEEDBACK

Daily
Averages
Monthly
Summary
United States of America

PYGA BEACH, GUAM


Home > North America > United States > Guam
Elevation: 20 feet     Latitude: 13 17N     Longitude: 144 39E

WEATHER
 
SELECT A DAY
Number of Records: 342,038;   Date Range: 1/1/95 - 7/29/14
 
SHARE

PRINT THIS DATA

[ ← Previous Day ]
WEATHER ALMANAC - JANUARY 23, 2013
[ Next Day → ]
[ °C ]   °F
Weather ElementAverageHighLow
Temperature78.2 °F84.2 °F (9:55 am)69.8 °F (2:55 am)
Dewpoint68.4 °F69.8 °F (12:42 am)63.3 °F (2:55 am)
Humidity72.3 %81 % (12:55 am)52 % (10:55 am)
Barometer29.87 in29.95 in (7:55 am)29.81 in (3:55 pm)
Wind Speed14.4 mph18.4 mph (12:55 am)
Weather ElementAverage
Visibility10 mi
Wind DirectionENE (51.7 °)

Weather ElementTotal
Precipitation---
Cooling Degree Days12 (Base 65)
Growing Degree Days27 (Base 50)
Averaged from 36 records on January 23, 2013
WEATHER CONDITIONS BREAKOUT
WIND DIRECTION BREAKOUT
WEATHER BY HOUR - JANUARY 23, 2013
[ °C ]   °F
Local TimeTemperatureDewpointHumidityBarometerVisibilityWind DirectionWind SpeedGust SpeedPrecipitationEventsConditions
12:42 AM78.8 °F69.8 °F74 %29.88 in10.0 miENE (60°)15.0 mphMostly Cloudy
12:43 AM78.8 °F69.8 °F74 %29.88 in10.0 miENE (60°)15.0 mphMostly Cloudy
12:55 AM72.0 °F65.8 °F81 %29.88 in10.0 miENE (60°)18.4 mphMostly Cloudy
1:48 AM78.8 °F69.8 °F74 %29.88 in10.0 miNE (50°)17.3 mphMostly Cloudy
1:55 AM78.8 °F65.5 °F64 %29.87 in10.0 miNE (50°)17.3 mphMostly Cloudy
2:08 AM78.8 °F69.8 °F74 %29.86 in10.0 miENE (60°)17.3 mphMostly Cloudy
2:10 AM78.8 °F69.8 °F74 %29.86 in10.0 miNE (50°)16.1 mphMostly Cloudy
2:14 AM78.8 °F69.8 °F74 %29.86 in10.0 miENE (60°)15.0 mphMostly Cloudy
2:55 AM69.8 °F63.3 °F80 %29.87 in10.0 miENE (60°)13.8 mphPartly Cloudy
3:55 AM77.0 °F69.8 °F78 %29.86 in10.0 miNE (50°)16.1 mphClear
4:23 AM77.0 °F69.8 °F78 %29.86 in10.0 miNE (50°)13.8 mphMostly Cloudy
4:25 AM77.0 °F69.8 °F78 %29.86 in10.0 miNE (50°)12.7 mphLight Drizzle
4:38 AM77.0 °F69.8 °F78 %29.86 in10.0 miENE (60°)12.7 mphMostly Cloudy
4:55 AM77.0 °F64.6 °F65 %29.86 in10.0 miNE (50°)12.7 mph0.00 inMostly Cloudy
5:04 AM77.0 °F69.8 °F78 %29.86 in10.0 miENE (60°)12.7 mphMostly Cloudy
5:31 AM77.0 °F69.8 °F78 %29.86 in10.0 miNE (50°)15.0 mphMostly Cloudy
5:36 AM77.0 °F69.8 °F78 %29.86 in10.0 miNE (50°)13.8 mphMostly Cloudy
5:55 AM77.0 °F69.8 °F78 %29.86 in10.0 miNE (50°)13.8 mphOvercast
6:55 AM70.7 °F64.2 °F80 %29.89 in10.0 miNE (50°)15.0 mphMostly Cloudy
7:55 AM78.8 °F69.8 °F74 %29.95 in10.0 miNE (50°)16.1 mphMostly Cloudy
8:55 AM82.4 °F69.8 °F66 %29.93 in10.0 miNE (50°)16.1 mphPartly Cloudy
9:55 AM84.2 °F66.0 °F54 %29.93 in10.0 miNE (50°)17.3 mphPartly Cloudy
10:55 AM84.2 °F64.6 °F52 %29.91 in10.0 miNE (40°)15.0 mphClear
11:55 AM82.8 °F69.6 °F64 %29.89 in10.0 miNE (50°)16.1 mphClear
12:55 PM82.6 °F69.4 °F64 %29.86 in10.0 miNE (50°)15.0 mphClear
1:55 PM82.9 °F68.2 °F61 %29.84 in10.0 miNE (40°)15.0 mphClear
2:55 PM82.9 °F69.8 °F64 %29.82 in10.0 miNE (40°)16.1 mphPartly Cloudy
3:55 PM81.9 °F68.2 °F63 %29.81 in10.0 miNE (40°)15.0 mphClear
4:55 PM80.8 °F68.0 °F65 %29.82 in10.0 miNNE (30°)16.1 mphClear
5:55 PM78.3 °F68.2 °F71 %29.83 in10.0 miNE (50°)12.7 mphClear
6:55 PM76.5 °F68.5 °F76 %29.85 in10.0 miENE (60°)13.8 mphClear
7:55 PM76.8 °F68.7 °F76 %29.87 in10.0 miNE (50°)13.8 mphPartly Cloudy
8:55 PM75.6 °F68.4 °F78 %29.88 in10.0 miENE (60°)10.4 mphPartly Cloudy
9:55 PM75.9 °F68.5 °F78 %29.89 in10.0 miENE (60°)10.4 mphPartly Cloudy
10:55 PM75.6 °F68.5 °F79 %29.89 in10.0 miNE (50°)8.1 mphPartly Cloudy
11:55 PM75.6 °F68.5 °F79 %29.89 in10.0 miENE (60°)9.2 mphScattered Clouds
Hourly data recorded from PGUA, located miles away from Pyga Beach, Guam







STORIES FROM OUR PARTNERS